User: anonymous   Login
Location: Unspecified
(0.0000°N, 0.0000°E)
Time: 00:24:27
(UTC+02:00)
Language:

YAOGAN 3 - Orbit

View from above orbital plane
View from above orbital plane
View from above satellite
View from above satellite

Ground track
Ground track

The orbit data is extracted from the following two-line orbital elements,

1 32289U 07055A   17085.87088160 -.00000133 +00000-0 -10361-4 0  9994
2 32289 097.9984 088.0231 0001230 100.2550 259.8801 14.80793836506556
Epoch (UTC): 26 March 2017 20:54:04
Eccentricity: 0.0001230
inclination: 97.9984°
perigee height: 626 km
apogee height: 627 km
right ascension of ascending node: 88.0231°
argument of perigee: 100.2550°
revolutions per day: 14.80793836
mean anomaly at epoch: 259.8801°
orbit number at epoch: 50655

The dashed part of the orbit path shows where the satellite is in the earth's shadow,  

DLR